GW2419 Weather Reports


Display with metric or nautical units.
time (UTC)temp
F
wind
direction
speed
MPH
gust
MPH
rain 1hr
in
rain 24hr
in
rain mn
in
humidity
%
barometer
mb
20240302173019 47 22 3.0 8.0 0.00 0.00 0.00 64 1009.9
20240302172522 47 19 2.0 9.0 0.00 0.00 0.00 65 1010.0
20240302172022 46 16 4.0 9.0 0.00 0.00 0.00 65 1010.0
20240302171520 46 18 3.0 10.0 0.00 0.00 0.00 66 1009.9
20240302171020 45 14 3.0 10.0 0.00 0.00 0.00 67 1009.7
20240302170519 45 19 5.0 10.0 0.00 0.00 0.00 67 1009.5
20240302170026 45 15 2.0 10.0 0.00 0.00 0.00 67 1009.5
20240302165519 45 23 3.0 10.0 0.00 0.00 0.00 67 1009.6
20240302165019 45 19 3.0 10.0 0.00 0.00 0.00 67 1009.6
20240302164521 45 17 2.0 8.0 0.00 0.00 0.00 68 1009.7
20240302164018 44 21 3.0 8.0 0.00 0.00 0.00 68 1009.7
20240302163518 44 20 2.0 9.0 0.00 0.00 0.00 69 1009.9
20240302163028 43 22 2.0 9.0 0.00 0.00 0.00 69 1009.8
20240302162518 43 19 3.0 9.0 0.00 0.00 0.00 69 1009.8
20240302162018 43 150 3.0 8.0 0.00 0.00 0.00 70 1010.0
20240302161526 42 99 3.0 8.0 0.00 0.00 0.00 70 1010.1
20240302161019 42 185 4.0 8.0 0.00 0.00 0.00 70 1010.1
20240302160520 42 110 3.0 10.0 0.00 0.00 0.00 71 1010.2
20240302160024 41 161 4.0 11.0 0.00 0.00 0.00 72 1010.2
20240302155519 41 140 4.0 11.0 0.00 0.00 0.00 72 1010.2
20240302155020 41 132 4.0 11.0 0.00 0.00 0.00 72 1010.2
20240302154528 41 148 4.0 9.0 0.00 0.00 0.00 72 1010.2
20240302154024 41 144 2.0 9.0 0.00 0.00 0.00 72 1010.4
20240302153521 41 96 3.0 8.0 0.00 0.00 0.00 72 1010.4
20240302153021 41 172 2.0 8.0 0.00 0.00 0.00 73 1010.4
20240302152523 41 118 3.0 8.0 0.00 0.00 0.00 73 1010.6
20240302152021 40 196 2.0 7.0 0.00 0.00 0.00 74 1010.8
20240302151533 40 183 3.0 9.0 0.00 0.00 0.00 74 1010.8
20240302151024 40 145 4.0 9.0 0.00 0.00 0.00 74 1010.8
20240302150521 39 138 2.0 7.0 0.00 0.00 0.00 75 1011.0
20240302150025 39 141 3.0 7.0 0.00 0.00 0.00 75 1011.0
20240302145522 39 176 3.0 7.0 0.00 0.00 0.00 76 1011.0
20240302145020 38 144 2.0 6.0 0.00 0.00 0.00 77 1011.1
20240302144524 38 140 3.0 6.0 0.00 0.00 0.00 77 1011.1
20240302144021 38 157 3.0 8.0 0.00 0.00 0.00 78 1011.1
20240302143521 37 27 3.0 8.0 0.00 0.00 0.00 79 1011.1
20240302143027 37 23 2.0 8.0 0.00 0.00 0.00 80 1011.0
20240302142521 36 12 2.0 8.0 0.00 0.00 0.00 81 1011.1
20240302142021 36 12 3.0 8.0 0.00 0.00 0.00 81 1010.9
20240302141539 35 13 3.0 7.0 0.00 0.00 0.00 82 1011.0
20240302141021 35 13 2.0 7.0 0.00 0.00 0.00 82 1011.1
20240302140521 35 12 2.0 7.0 0.00 0.00 0.00 82 1011.1
20240302140023 35 12 2.0 5.0 0.00 0.00 0.00 82 1011.2
20240302135521 35 13 2.0 5.0 0.00 0.00 0.00 82 1011.2
20240302135022 35 13 2.0 5.0 0.00 0.00 0.00 82 1011.3
20240302134531 34 12 1.0 4.0 0.00 0.00 0.00 82 1011.4
20240302134021 34 12 1.0 5.0 0.00 0.00 0.00 82 1011.4
20240302133522 34 13 2.0 5.0 0.00 0.00 0.00 82 1011.2
20240302133024 34 13 1.0 3.0 0.00 0.00 0.00 82 1011.1
20240302132520 34 13 0.0 3.0 0.00 0.00 0.00 82 1011.1
20240302132021 35 13 0.0 3.0 0.00 0.00 0.00 81 1010.9
20240302131532 35 13 0.0 3.0 0.00 0.00 0.00 81 1011.1
20240302131021 35 13 0.0 4.0 0.00 0.00 0.00 81 1011.2
20240302130521 35 13 0.0 4.0 0.00 0.00 0.00 81 1011.1
20240302130025 35 13 0.0 4.0 0.00 0.00 0.00 81 1011.1
20240302125521 35 13 1.0 6.0 0.00 0.00 0.00 81 1011.2
20240302125020 35 13 2.0 7.0 0.00 0.00 0.00 81 1011.3
20240302124545 35 13 2.0 7.0 0.00 0.00 0.00 81 1011.2
20240302124020 35 14 1.0 4.0 0.00 0.00 0.00 80 1011.2
20240302123523 35 13 1.0 4.0 0.00 0.00 0.00 81 1011.1
20240302123028 35 13 1.0 5.0 0.00 0.00 0.00 80 1011.1
20240302122521 35 13 1.0 5.0 0.00 0.00 0.00 80 1011.1
20240302122021 35 13 1.0 4.0 0.00 0.00 0.00 80 1011.1
20240302121525 36 16 1.0 4.0 0.00 0.00 0.00 80 1011.0
20240302121021 36 16 1.0 5.0 0.00 0.00 0.00 80 1011.0
20240302120521 36 13 1.0 5.0 0.00 0.00 0.00 79 1010.9
20240302120033 36 15 2.0 5.0 0.00 0.00 0.00 79 1010.9
20240302115521 36 360 2.0 5.0 0.00 0.00 0.00 79 1010.8
20240302115021 36 360 2.0 5.0 0.00 0.00 0.00 79 1010.9
20240302114522 36 19 2.0 5.0 0.00 0.00 0.00 79 1010.9
20240302114023 36 14 1.0 5.0 0.00 0.00 0.00 79 1010.9
20240302113521 36 14 2.0 5.0 0.00 0.00 0.00 79 1010.9
20240302113023 36 15 2.0 5.0 0.00 0.00 0.00 79 1010.8
20240302112524 36 13 2.0 4.0 0.00 0.00 0.00 79 1010.7
20240302112020 36 13 2.0 5.0 0.00 0.00 0.00 79 1010.6
20240302111525 36 13 1.0 5.0 0.00 0.00 0.00 78 1010.6
20240302111024 36 13 2.0 5.0 0.00 0.00 0.00 78 1010.6
20240302110521 36 12 1.0 4.0 0.00 0.00 0.00 78 1010.4
20240302110026 37 13 1.0 4.0 0.00 0.00 0.00 78 1010.4
20240302105526 37 12 1.0 4.0 0.00 0.00 0.00 78 1010.4
20240302105022 37 13 2.0 4.0 0.00 0.00 0.00 78 1010.6
20240302104525 37 12 1.0 5.0 0.00 0.00 0.00 77 1010.5
20240302104027 37 12 2.0 5.0 0.00 0.00 0.00 77 1010.4
20240302103521 37 11 2.0 5.0 0.00 0.00 0.00 77 1010.5
20240302103027 37 11 2.0 6.0 0.00 0.00 0.00 77 1010.6
20240302102521 37 12 2.0 7.0 0.00 0.00 0.00 77 1010.4
20240302102021 37 12 2.0 7.0 0.00 0.00 0.00 77 1010.4
20240302101536 37 11 2.0 5.0 0.00 0.00 0.00 77 1010.6
20240302101024 37 12 2.0 5.0 0.00 0.00 0.00 76 1010.4
20240302100522 38 11 1.0 8.0 0.00 0.00 0.00 76 1010.5
20240302100029 38 11 3.0 8.0 0.00 0.00 0.00 76 1010.5
20240302095521 38 12 2.0 7.0 0.00 0.00 0.00 76 1010.3
20240302095020 38 11 1.0 7.0 0.00 0.00 0.00 76 1010.3
20240302094524 38 11 2.0 5.0 0.00 0.00 0.00 76 1010.3
20240302094021 38 11 1.0 5.0 0.00 0.00 0.00 76 1010.1
20240302093524 38 12 2.0 5.0 0.00 0.00 0.00 75 1010.0
20240302093026 38 11 2.0 5.0 0.00 0.00 0.00 75 1009.9
20240302092522 38 11 2.0 5.0 0.00 0.00 0.00 75 1010.0
20240302092024 38 11 1.0 5.0 0.00 0.00 0.00 75 1009.9
20240302091524 38 12 2.0 5.0 0.00 0.00 0.00 75 1009.7
20240302091023 38 11 3.0 8.0 0.00 0.00 0.00 74 1009.9
20240302090521 39 11 2.0 8.0 0.00 0.00 0.00 74 1009.8
20240302090024 39 14 1.0 5.0 0.00 0.00 0.00 74 1009.9
20240302085520 39 360 2.0 5.0 0.00 0.00 0.00 74 1009.9
20240302085021 39 360 2.0 5.0 0.00 0.00 0.00 73 1010.0
20240302084529 39 360 3.0 6.0 0.00 0.00 0.00 73 1010.0
20240302084021 39 360 3.0 7.0 0.00 0.00 0.00 73 1010.1
20240302083524 39 360 2.0 7.0 0.00 0.00 0.00 73 1009.9
20240302083025 39 14 3.0 8.0 0.00 0.00 0.00 73 1009.9
20240302082520 39 12 3.0 8.0 0.00 0.00 0.00 73 1009.9
20240302082025 39 11 2.0 5.0 0.00 0.00 0.00 73 1009.9
20240302081525 39 13 2.0 7.0 0.00 0.00 0.00 72 1009.9
20240302081020 40 13 2.0 7.0 0.00 0.00 0.00 72 1010.1
20240302080521 40 11 3.0 7.0 0.00 0.00 0.00 72 1010.1
20240302080024 40 12 2.0 8.0 0.00 0.00 0.00 72 1010.1
20240302075523 40 13 2.0 8.0 0.00 0.00 0.00 72 1010.1
20240302075020 40 360 2.0 8.0 0.00 0.00 0.00 72 1010.0
20240302074527 40 360 2.0 5.0 0.00 0.00 0.00 71 1009.9
20240302074021 40 18 2.0 8.0 0.00 0.00 0.00 71 1010.0
20240302073521 40 360 2.0 8.0 0.00 0.00 0.00 71 1010.0
20240302073035 40 19 3.0 8.0 0.00 0.00 0.00 71 1009.9
20240302072521 40 360 3.0 8.0 0.00 0.00 0.00 70 1009.8
20240302072021 40 360 3.0 8.0 0.00 0.00 0.00 70 1009.8
20240302071536 41 19 2.0 5.0 0.00 0.00 0.00 70 1010.0
20240302071021 41 18 2.0 7.0 0.00 0.00 0.00 69 1010.0
20240302070523 41 19 2.0 7.0 0.00 0.00 0.00 69 1010.0
20240302070027 41 19 2.0 5.0 0.00 0.00 0.00 69 1010.1
20240302065521 41 22 2.0 9.0 0.00 0.00 0.00 69 1010.0
20240302065020 41 360 2.0 9.0 0.00 0.00 0.00 69 1010.0
20240302064527 41 360 2.0 6.0 0.00 0.00 0.00 68 1009.9
20240302064021 41 15 2.0 5.0 0.00 0.00 0.00 68 1010.0
20240302063521 42 13 2.0 5.0 0.00 0.00 0.00 68 1010.1
20240302063026 42 13 2.0 5.0 0.00 0.00 0.00 67 1010.2
20240302062521 42 13 2.0 6.0 0.00 0.00 0.00 67 1010.2
20240302062021 42 13 2.0 9.0 0.00 0.00 0.00 67 1010.2
20240302061526 42 13 3.0 9.0 0.00 0.00 0.00 67 1010.1
20240302061025 42 12 3.0 8.0 0.00 0.00 0.00 66 1010.0
20240302060521 42 12 3.0 8.0 0.00 0.00 0.00 66 1010.1
20240302060026 43 11 3.0 8.0 0.00 0.00 0.00 66 1010.0
20240302055521 43 11 3.0 8.0 0.00 0.00 0.00 66 1010.0
20240302055023 43 12 3.0 8.0 0.00 0.00 0.00 66 1009.9
20240302054523 43 13 4.0 9.0 0.00 0.00 0.00 65 1009.8
20240302054021 43 12 3.0 9.0 0.00 0.00 0.00 65 1009.7
20240302053520 43 12 2.0 8.0 0.00 0.00 0.00 65 1009.7
20240302053026 43 12 2.0 7.0 0.00 0.00 0.00 64 1009.6
20240302052524 44 13 3.0 8.0 0.00 0.00 0.00 64 1009.6
20240302052021 44 13 3.0 8.0 0.00 0.00 0.00 64 1009.7
20240302051530 44 14 3.0 7.0 0.00 0.00 0.00 64 1009.5
20240302051021 44 14 2.0 8.0 0.00 0.00 0.00 63 1009.5
20240302050526 44 14 2.0 8.0 0.00 0.00 0.00 63 1009.4
20240302050028 44 15 2.0 8.0 0.00 0.00 0.00 63 1009.5
20240302045528 45 14 3.0 7.0 0.00 0.00 0.00 62 1009.5
20240302045020 45 0 2.0 9.0 0.00 0.00 0.00 62 1009.6
20240302044524 45 14 3.0 9.0 0.00 0.00 0.00 62 1009.6
20240302044020 45 15 2.0 8.0 0.00 0.00 0.00 61 1009.5
20240302043522 45 17 2.0 8.0 0.00 0.00 0.00 61 1009.6
20240302043042 45 18 2.0 9.0 0.00 0.00 0.00 61 1009.7
20240302042526 46 16 3.0 9.0 0.00 0.00 0.00 60 1009.7
20240302042022 46 15 4.0 14.0 0.00 0.00 0.00 60 1009.6
20240302041536 46 15 4.0 14.0 0.00 0.00 0.00 60 1009.5
20240302041020 46 17 3.0 13.0 0.00 0.00 0.00 60 1009.6
20240302040525 46 16 5.0 13.0 0.00 0.00 0.00 60 1009.5
20240302040024 46 16 4.0 11.0 0.00 0.00 0.00 59 1009.5
20240302035524 47 15 4.0 9.0 0.00 0.00 0.00 59 1009.6
20240302035023 47 16 5.0 12.0 0.00 0.00 0.00 59 1009.5
20240302034527 47 15 3.0 12.0 0.00 0.00 0.00 59 1009.3
20240302034023 47 16 4.0 9.0 0.00 0.00 0.00 59 1009.2
20240302033522 47 15 3.0 9.0 0.00 0.00 0.00 58 1009.2
20240302033034 48 17 4.0 9.0 0.00 0.00 0.00 58 1009.2
20240302032523 48 21 4.0 9.0 0.00 0.00 0.00 58 1009.0
20240302032021 48 20 4.0 10.0 0.00 0.00 0.00 57 1009.1
20240302031544 48 17 4.0 10.0 0.00 0.00 0.00 57 1009.1
20240302031021 48 17 4.0 10.0 0.00 0.00 0.00 57 1009.1
20240302030520 49 19 3.0 12.0 0.00 0.00 0.00 56 1009.0
20240302030024 49 17 4.0 12.0 0.00 0.00 0.00 56 1008.9
20240302025523 49 18 5.0 10.0 0.00 0.00 0.00 56 1009.0
20240302025025 49 19 4.0 10.0 0.00 0.00 0.00 56 1009.0
20240302024523 49 18 4.0 10.0 0.00 0.00 0.00 56 1009.0
20240302024023 49 20 4.0 10.0 0.00 0.00 0.00 55 1008.9
20240302023523 49 19 4.0 10.0 0.00 0.00 0.00 55 1009.0
20240302023028 50 22 5.0 10.0 0.00 0.00 0.00 55 1009.0
20240302022524 50 30 4.0 9.0 0.00 0.00 0.00 54 1008.9
20240302022025 50 26 3.0 11.0 0.00 0.00 0.00 54 1008.9
20240302021528 50 28 4.0 11.0 0.00 0.00 0.00 54 1008.8
20240302021021 50 145 4.0 10.0 0.00 0.00 0.00 54 1008.7
20240302020521 50 131 5.0 10.0 0.00 0.00 0.00 54 1008.7
20240302020027 50 147 4.0 10.0 0.00 0.00 0.00 53 1008.6
20240302015520 51 150 4.0 10.0 0.00 0.00 0.00 53 1008.5
20240302015023 51 158 5.0 10.0 0.00 0.00 0.00 53 1008.5
20240302014526 51 185 4.0 9.0 0.00 0.00 0.00 52 1008.5
20240302014022 51 160 3.0 9.0 0.00 0.00 0.00 52 1008.5
20240302013521 52 171 4.0 9.0 0.00 0.00 0.00 51 1008.5
20240302013029 52 193 3.0 10.0 0.00 0.00 0.00 51 1008.5
20240302012524 52 193 4.0 10.0 0.00 0.00 0.00 51 1008.4
20240302012022 52 144 3.0 9.0 0.00 0.00 0.00 50 1008.4
20240302011527 53 142 3.0 10.0 0.00 0.00 0.00 50 1008.3
20240302011023 53 187 4.0 10.0 0.00 0.00 0.00 50 1008.3
20240302010520 53 166 4.0 10.0 0.00 0.00 0.00 50 1008.3
20240302010027 53 167 4.0 10.0 0.00 0.00 0.00 50 1008.3
20240302005527 53 180 3.0 9.0 0.00 0.00 0.00 50 1008.4
20240302005024 53 155 3.0 9.0 0.00 0.00 0.00 50 1008.3
20240302004524 53 186 3.0 9.0 0.00 0.00 0.00 49 1008.2
20240302004023 54 149 4.0 9.0 0.00 0.00 0.00 49 1008.1
20240302003522 54 195 4.0 9.0 0.00 0.00 0.00 49 1008.0
20240302003027 54 150 4.0 10.0 0.00 0.00 0.00 49 1008.0
20240302002521 54 161 5.0 10.0 0.00 0.00 0.00 48 1007.9
20240302002021 54 185 4.0 10.0 0.00 0.00 0.00 48 1007.9
20240302001530 54 165 4.0 11.0 0.00 0.00 0.00 48 1007.9
20240302001021 54 164 4.0 11.0 0.00 0.00 0.00 48 1007.9
20240302000521 55 156 4.0 11.0 0.00 0.00 0.00 47 1007.8
20240302000032 55 169 5.0 10.0 0.00 0.00 0.00 47 1007.7
20240301235520 55 151 5.0 10.0 0.00 0.00 0.00 47 1007.8
20240301235019 55 165 4.0 11.0 0.00 0.00 0.00 47 1007.7
20240301234525 55 161 4.0 11.0 0.00 0.00 0.00 47 1007.7
20240301234020 56 134 4.0 14.0 0.00 0.00 0.00 47 1007.8
20240301233522 56 165 5.0 14.0 0.00 0.00 0.00 46 1007.8
20240301233029 56 148 4.0 10.0 0.00 0.00 0.00 46 1007.8
20240301232522 56 105 4.0 14.0 0.00 0.00 0.00 46 1007.9
20240301232023 56 98 4.0 14.0 0.00 0.00 0.00 46 1007.7
20240301231525 56 36 5.0 12.0 0.00 0.00 0.00 46 1007.8
20240301231020 56 146 5.0 14.0 0.00 0.00 0.00 46 1007.7
20240301230524 56 158 4.0 14.0 0.00 0.00 0.00 46 1007.6
20240301230028 56 141 5.0 14.0 0.00 0.00 0.00 46 1007.6
20240301225521 57 171 4.0 14.0 0.00 0.00 0.00 46 1007.5
20240301225020 57 143 5.0 14.0 0.00 0.00 0.00 46 1007.5
20240301224526 57 141 3.0 14.0 0.00 0.00 0.00 46 1007.4
20240301224022 57 167 6.0 15.0 0.00 0.00 0.00 45 1007.3
20240301223521 57 187 4.0 19.0 0.00 0.00 0.00 46 1007.3
20240301223032 57 140 9.0 19.0 0.00 0.00 0.00 45 1007.2
20240301222523 57 159 8.0 17.0 0.00 0.00 0.00 45 1007.2
20240301222022 57 144 5.0 16.0 0.00 0.00 0.00 45 1007.2
20240301221535 57 142 8.0 16.0 0.00 0.00 0.00 45 1007.2
20240301221022 57 163 9.0 16.0 0.00 0.00 0.00 45 1007.2
20240301220524 57 137 7.0 16.0 0.00 0.00 0.00 45 1007.3
20240301220026 57 163 8.0 17.0 0.00 0.00 0.00 45 1007.2
20240301215521 57 161 11.0 19.0 0.00 0.00 0.00 44 1007.2
20240301215021 58 146 8.0 19.0 0.00 0.00 0.00 45 1007.3
20240301214527 58 154 8.0 15.0 0.00 0.00 0.00 44 1007.2
20240301214022 58 136 5.0 21.0 0.00 0.00 0.00 44 1007.3
20240301213526 57 138 9.0 21.0 0.00 0.00 0.00 44 1007.2
20240301213023 57 163 4.0 12.0 0.00 0.00 0.00 45 1007.2
20240301212520 57 141 5.0 17.0 0.00 0.00 0.00 45 1007.2
20240301212022 57 138 7.0 18.0 0.00 0.00 0.00 45 1007.4
20240301211540 57 134 6.0 19.0 0.00 0.00 0.00 45 1007.2
20240301211021 57 150 8.0 19.0 0.00 0.00 0.00 44 1007.1
20240301210524 57 188 7.0 17.0 0.00 0.00 0.00 45 1007.1
20240301210028 57 139 7.0 18.0 0.00 0.00 0.00 45 1007.2
20240301205526 56 188 7.0 18.0 0.00 0.00 0.00 45 1007.2
20240301205024 56 51 6.0 14.0 0.00 0.00 0.00 45 1007.4
20240301204533 56 28 8.0 14.0 0.00 0.00 0.00 45 1007.5
20240301204021 56 26 8.0 14.0 0.00 0.00 0.00 45 1007.8
20240301203524 56 27 5.0 17.0 0.00 0.00 0.00 46 1007.7
20240301203028 56 22 5.0 17.0 0.00 0.00 0.00 45 1007.7
20240301202524 56 30 8.0 19.0 0.00 0.00 0.00 45 1007.7
20240301202021 56 39 9.0 19.0 0.00 0.00 0.00 45 1007.7
20240301201525 56 148 3.0 18.0 0.00 0.00 0.00 46 1007.8
20240301201020 55 124 8.0 18.0 0.00 0.00 0.00 46 1007.6
20240301200522 55 92 10.0 21.0 0.00 0.00 0.00 46 1007.6
20240301200028 55 107 9.0 21.0 0.00 0.00 0.00 46 1007.5
20240301195522 55 159 10.0 17.0 0.00 0.00 0.00 46 1007.5
20240301195021 55 126 7.0 17.0 0.00 0.00 0.00 46 1007.5
20240301194527 55 157 8.0 17.0 0.00 0.00 0.00 46 1007.5
20240301194021 54 144 7.0 18.0 0.00 0.00 0.00 47 1007.5
20240301193520 54 101 7.0 18.0 0.00 0.00 0.00 47 1007.4
20240301193026 54 124 7.0 17.0 0.00 0.00 0.00 47 1007.5
20240301192521 54 136 8.0 17.0 0.00 0.00 0.00 46 1007.7
20240301192019 53 130 5.0 14.0 0.00 0.00 0.00 47 1007.7
20240301191522 53 109 7.0 17.0 0.00 0.00 0.00 47 1007.9
20240301191020 53 132 9.0 17.0 0.00 0.00 0.00 47 1008.1
20240301190520 53 123 7.0 14.0 0.00 0.00 0.00 47 1008.0
20240301190024 53 137 6.0 16.0 0.00 0.00 0.00 47 1008.0
20240301185520 52 103 7.0 19.0 0.00 0.00 0.00 48 1008.1
20240301185021 52 109 11.0 19.0 0.00 0.00 0.00 48 1008.1
20240301184522 52 121 9.0 17.0 0.00 0.00 0.00 48 1008.0
20240301184021 52 184 7.0 17.0 0.00 0.00 0.00 48 1008.1
20240301183520 51 113 5.0 17.0 0.00 0.00 0.00 49 1008.3
20240301183026 51 121 8.0 15.0 0.00 0.00 0.00 48 1008.3
20240301182522 51 112 6.0 13.0 0.00 0.00 0.00 49 1008.3
20240301182020 50 92 5.0 16.0 0.00 0.00 0.00 49 1008.5
20240301181520 50 107 7.0 16.0 0.00 0.00 0.00 49 1008.4
20240301181020 50 131 7.0 16.0 0.00 0.00 0.00 50 1008.5
20240301180519 50 155 7.0 17.0 0.00 0.00 0.00 50 1008.6
20240301180024 49 123 7.0 21.0 0.00 0.00 0.00 50 1008.4
20240301175520 49 131 6.0 21.0 0.00 0.00 0.00 50 1008.4
20240301175023 48 137 9.0 21.0 0.00 0.00 0.00 51 1008.1
20240301174523 48 129 10.0 20.0 0.00 0.00 0.00 51 1008.2
20240301174019 48 108 10.0 20.0 0.00 0.00 0.00 50 1008.5
20240301173521 48 155 9.0 17.0 0.00 0.00 0.00 50 1008.6